Location: Holbach
(51.5399°N, 10.6036°E)
Time: 10:43:08
(UTC+00:00)

ATLAS CENTAUR R/B - Pass Details

Date: 24 January 2021
Orbit: 471 x 674 km, 64.6° (Epoch: 24 February)

Event Time Altitude Azimuth Distance (km) Brightness Sun altitude
Exits shadow 04:21:37 - 170° (S) 2,114 4.4 -25.4°
Reaches altitude 10° 04:23:10 10° 156° (SSE) 1,638 4.0 -25.2°
Maximum altitude 04:25:30 16° 116° (ESE) 1,290 3.9 -24.8°
Drops below altitude 10° 04:27:50 10° 75° (ENE) 1,640 4.7 -24.4°
Sets 04:30:33 0° 54° (NE) 2,531 5.5 -24.0°
